M I D A S
Marine Information and Data Acquisition System
Tripno 1058 of the Zeeleeuw from 2006-03-29 06:38:57 to 2006-03-29 13:25:43
Back to CruiseResearch ActivitiesStationsMapUnderway DataData graphs

EquipmentUnitsComments
TimeDGPSUTC
LatitudeDGPSDM.mWGS84
LongitudeDGPSDM.mWGS84
SpeedMeteo Stationm/sRelative wind speed
DirectionMeteo StationdegRelative wind direction
TemperatureMeteo Stationdeg CelciusAir temperature
PressureMeteo StationPaAtmospheric pressure
HumidityMeteo Station%Relative humidity
Missing or incorrect values are displayed as -999
Metereological data collected by the RV Zeeleeuw from 2006-03-29 06:39:03 to 2006-03-29 13:39:00
Time Latitude Longitude Speed Direction Temperature Pressure Humidity
2006-03-29 06:40 51°13.61 2°56.047 -999 191 7.7 100570 93
2006-03-29 06:41 51°13.64 2°55.942 -999 153 7.7 100570 93
2006-03-29 06:42 51°13.684 2°55.833 -999 141 7.7 100570 93
2006-03-29 06:43 51°13.708 2°55.751 -999 160 7.7 100570 93
2006-03-29 06:44 51°13.719 2°55.752 -999 205 7.7 100570 93
2006-03-29 06:45 51°13.715 2°55.741 -999 260 7.7 100590 93
2006-03-29 06:46 51°13.727 2°55.729 -999 264 7.7 100580 93
2006-03-29 06:47 51°13.784 2°55.671 -999 234 7.7 100580 93
2006-03-29 06:48 51°13.887 2°55.588 -999 315 7.7 100580 93
2006-03-29 06:49 51°14.007 2°55.504 -999 332 7.7 100570 93
2006-03-29 06:50 51°14.111 2°55.427 -999 356 7.7 100570 93
2006-03-29 06:51 51°14.218 2°55.326 -999 321 7.7 100570 93
2006-03-29 06:52 51°14.305 2°55.181 -999 323 7.6 100570 92
2006-03-29 06:53 51°14.392 2°55.035 -999 313 7.6 100560 92
2006-03-29 06:54 51°14.519 2°54.862 -999 229 7.5 100560 93
2006-03-29 06:55 51°14.691 2°54.697 -999 41 7.5 100560 93
2006-03-29 06:56 51°14.865 2°54.51 -999 41 7.4 100560 93
2006-03-29 06:57 51°15.037 2°54.339 -999 311 7.4 100550 93
2006-03-29 06:58 51°15.214 2°54.19 -999 320 7.3 100570 93
2006-03-29 06:59 51°15.388 2°54.014 -999 312 7.3 100550 94
2006-03-29 07:00 51°15.57 2°53.859 -999 231 7.2 100560 94
2006-03-29 07:01 51°15.756 2°53.691 -999 314 7.2 100550 94
2006-03-29 07:02 51°15.941 2°53.542 -999 229 7.2 100560 94
2006-03-29 07:03 51°16.123 2°53.388 -999 229 7.1 100560 94
2006-03-29 07:04 51°16.305 2°53.232 -999 227 7.1 100560 94
2006-03-29 07:05 51°16.488 2°53.076 -999 314 7.1 100560 95
2006-03-29 07:06 51°16.672 2°52.926 -999 227 7 100560 95
2006-03-29 07:07 51°16.846 2°52.781 -999 39 7 100560 95
2006-03-29 07:08 51°17.018 2°52.624 -999 44 7 100570 95
2006-03-29 07:09 51°17.188 2°52.465 -999 315 7 100570 95
2006-03-29 07:10 51°17.344 2°52.261 -999 321 6.9 100570 95
2006-03-29 07:11 51°17.461 2°51.982 -999 328 6.9 100560 95
2006-03-29 07:12 51°17.564 2°51.699 -999 332 6.9 100560 96
2006-03-29 07:13 51°17.667 2°51.408 -999 325 6.8 100570 96
2006-03-29 07:14 51°17.771 2°51.12 -999 332 6.8 100560 96
2006-03-29 07:15 51°17.868 2°50.822 -999 333 6.8 100570 96
2006-03-29 07:16 51°17.962 2°50.507 -999 332 6.8 100570 96
2006-03-29 07:17 51°18.055 2°50.195 -999 329 6.8 100560 96
2006-03-29 07:18 51°18.158 2°49.891 -999 326 6.8 100570 96
2006-03-29 07:19 51°18.268 2°49.595 -999 331 6.8 100570 96
2006-03-29 07:20 51°18.374 2°49.294 -999 333 6.7 100570 96
2006-03-29 07:21 51°18.461 2°48.975 -999 334 6.7 100580 97
2006-03-29 07:22 51°18.551 2°48.658 -999 336 6.7 100570 97
2006-03-29 07:23 51°18.639 2°48.343 -999 335 6.7 100580 97
2006-03-29 07:24 51°18.728 2°48.011 -999 336 6.7 100580 97
2006-03-29 07:25 51°18.808 2°47.679 -999 335 6.7 100580 97
2006-03-29 07:26 51°18.886 2°47.35 -999 332 6.6 100580 97
2006-03-29 07:27 51°18.968 2°47.007 -999 334 6.6 100580 97
2006-03-29 07:28 51°19.047 2°46.673 -999 335 6.6 100570 97
2006-03-29 07:29 51°19.131 2°46.328 -999 335 6.6 100580 97
2006-03-29 07:30 51°19.213 2°45.99 -999 337 6.6 100580 97
2006-03-29 07:31 51°19.295 2°45.653 -999 335 6.6 100580 97
2006-03-29 07:32 51°19.382 2°45.321 -999 333 6.6 100580 97
2006-03-29 07:33 51°19.478 2°44.994 -999 335 6.5 100580 97
2006-03-29 07:34 51°19.574 2°44.664 -999 333 6.6 100580 97
2006-03-29 07:35 51°19.668 2°44.336 -999 333 6.6 100570 97
2006-03-29 07:36 51°19.765 2°43.994 -999 332 6.5 100590 98
2006-03-29 07:37 51°19.859 2°43.656 -999 332 6.6 100580 98
2006-03-29 07:38 51°19.954 2°43.321 -999 333 6.6 100590 98
2006-03-29 07:39 51°20.046 2°42.985 -999 334 6.6 100590 98
2006-03-29 07:40 51°20.134 2°42.648 -999 331 6.6 100580 98
2006-03-29 07:41 51°20.219 2°42.308 -999 335 6.6 100590 98
2006-03-29 07:42 51°20.292 2°41.963 -999 339 6.6 100590 98
2006-03-29 07:43 51°20.36 2°41.603 -999 340 6.7 100580 98
2006-03-29 07:44 51°20.428 2°41.253 -999 340 6.7 100590 98
2006-03-29 07:45 51°20.488 2°40.898 -999 342 6.7 100600 98
2006-03-29 07:46 51°20.53 2°40.533 -999 346 6.7 100610 98
2006-03-29 07:47 51°20.574 2°40.168 -999 344 6.7 100610 98
2006-03-29 07:48 51°20.615 2°39.802 -999 342 6.7 100620 98
2006-03-29 07:49 51°20.658 2°39.436 -999 343 6.7 100610 98
2006-03-29 07:50 51°20.686 2°39.074 -999 348 6.7 100600 98
2006-03-29 07:51 51°20.713 2°38.701 -999 342 6.7 100610 98
2006-03-29 07:52 51°20.741 2°38.332 -999 344 6.7 100610 98
2006-03-29 07:53 51°20.766 2°37.962 -999 347 6.7 100610 98
2006-03-29 07:54 51°20.79 2°37.591 -999 352 6.7 100620 98
2006-03-29 07:55 51°20.813 2°37.219 -999 351 6.7 100620 98
2006-03-29 07:56 51°20.848 2°36.846 -999 348 6.6 100630 98
2006-03-29 07:57 51°20.904 2°36.483 -999 342 6.7 100630 98
2006-03-29 07:58 51°20.959 2°36.117 -999 342 6.6 100620 98
2006-03-29 07:59 51°21.01 2°35.75 -999 343 6.6 100620 98
2006-03-29 08:00 51°21.061 2°35.379 -999 339 6.6 100620 98
2006-03-29 08:01 51°21.112 2°35.009 -999 343 6.7 100620 98
2006-03-29 08:02 51°21.162 2°34.636 -999 338 6.7 100620 98
2006-03-29 08:03 51°21.215 2°34.264 -999 342 6.6 100620 98
2006-03-29 08:04 51°21.267 2°33.893 -999 337 6.6 100620 98
2006-03-29 08:05 51°21.392 2°33.604 -999 319 6.6 100610 98
2006-03-29 08:06 51°21.542 2°33.349 -999 316 6.6 100620 98
2006-03-29 08:07 51°21.706 2°33.133 -999 229 6.6 100620 98
2006-03-29 08:08 51°21.875 2°32.934 -999 316 6.6 100620 98
2006-03-29 08:09 51°22.039 2°32.729 -999 314 6.6 100630 98
2006-03-29 08:10 51°22.208 2°32.514 -999 315 6.6 100640 98
2006-03-29 08:11 51°22.37 2°32.298 -999 230 6.6 100630 98
2006-03-29 08:12 51°22.498 2°32.002 -999 335 6.6 100620 98
2006-03-29 08:13 51°22.521 2°31.629 -999 350 6.6 100630 98
2006-03-29 08:14 51°22.518 2°31.239 -999 349 6.6 100630 99
2006-03-29 08:15 51°22.517 2°30.85 -999 344 6.6 100630 99
2006-03-29 08:16 51°22.519 2°30.463 -999 349 6.6 100630 99
2006-03-29 08:17 51°22.518 2°30.079 -999 346 6.6 100630 99
2006-03-29 08:18 51°22.519 2°29.697 -999 348 6.6 100630 99
2006-03-29 08:19 51°22.518 2°29.316 -999 341 6.6 100630 99
2006-03-29 08:20 51°22.517 2°28.935 -999 346 6.6 100630 99
2006-03-29 08:21 51°22.516 2°28.552 -999 343 6.6 100620 99
2006-03-29 08:22 51°22.514 2°28.174 -999 346 6.6 100630 99
2006-03-29 08:23 51°22.511 2°27.779 -999 347 6.6 100640 99
2006-03-29 08:24 51°22.507 2°27.39 -999 348 6.6 100630 99
2006-03-29 08:25 51°22.506 2°27.005 -999 349 6.6 100640 99
2006-03-29 08:26 51°22.51 2°26.619 -999 347 6.6 100650 99
2006-03-29 08:27 51°22.531 2°26.242 -999 339 6.6 100630 99
2006-03-29 08:28 51°22.622 2°25.912 -999 322 6.6 100640 99
2006-03-29 08:29 51°22.782 2°25.692 -999 305 6.7 100640 99
2006-03-29 08:30 51°22.978 2°25.625 -999 297 6.7 100660 99
2006-03-29 08:31 51°23.178 2°25.589 -999 300 6.7 100670 99
2006-03-29 08:32 51°23.378 2°25.557 -999 299 6.7 100660 99
2006-03-29 08:33 51°23.576 2°25.53 -999 300 6.7 100670 99
2006-03-29 08:34 51°23.773 2°25.505 -999 297 6.7 100660 99
2006-03-29 08:35 51°23.968 2°25.494 -999 298 6.7 100670 99
2006-03-29 08:36 51°24.16 2°25.48 -999 301 6.7 100670 99
2006-03-29 08:37 51°24.35 2°25.466 -999 292 6.7 100670 99
2006-03-29 08:38 51°24.537 2°25.454 -999 283 6.7 100670 99
2006-03-29 08:39 51°24.686 2°25.461 -999 284 6.7 100670 99
2006-03-29 08:40 51°24.867 2°25.507 -999 287 6.7 100680 99
2006-03-29 08:41 51°25.051 2°25.551 -999 291 6.7 100680 99
2006-03-29 08:42 51°25.237 2°25.601 -999 282 6.7 100680 99
2006-03-29 08:43 51°25.427 2°25.659 -999 288 6.7 100680 99
2006-03-29 08:44 51°25.617 2°25.716 -999 299 6.7 100670 99
2006-03-29 08:45 51°25.806 2°25.775 -999 290 6.7 100670 99
2006-03-29 08:46 51°25.998 2°25.829 -999 302 6.7 100670 99
2006-03-29 08:47 51°26.189 2°25.887 -999 286 6.7 100680 99
2006-03-29 08:48 51°26.382 2°25.944 -999 290 6.7 100670 99
2006-03-29 08:49 51°26.575 2°26.006 -999 276 6.7 100680 99
2006-03-29 08:50 51°26.77 2°26.073 -999 297 6.7 100680 99
2006-03-29 08:51 51°26.964 2°26.144 -999 296 6.8 100680 99
2006-03-29 08:52 51°27.161 2°26.21 -999 300 6.8 100680 99
2006-03-29 08:53 51°27.356 2°26.277 -999 291 6.8 100680 99
2006-03-29 08:54 51°27.548 2°26.349 -999 286 6.9 100680 99
2006-03-29 08:55 51°27.742 2°26.421 -999 299 6.9 100680 99
2006-03-29 08:56 51°27.935 2°26.498 -999 293 6.9 100680 99
2006-03-29 08:57 51°28.135 2°26.504 -999 299 6.9 100680 99
2006-03-29 08:58 51°28.338 2°26.479 -999 302 6.9 100670 99
2006-03-29 08:59 51°28.537 2°26.462 -999 306 6.9 100670 99
2006-03-29 09:00 51°28.742 2°26.448 -999 308 6.9 100670 99
2006-03-29 09:01 51°28.946 2°26.435 -999 304 6.9 100680 99
2006-03-29 09:02 51°29.146 2°26.382 -999 312 6.8 100670 99
2006-03-29 09:03 51°29.34 2°26.277 -999 304 6.8 100670 99
2006-03-29 09:04 51°29.529 2°26.146 -999 308 6.8 100670 99
2006-03-29 09:05 51°29.718 2°26.008 -999 303 6.8 100670 99
2006-03-29 09:06 51°29.909 2°25.892 -999 301 6.8 100670 99
2006-03-29 09:07 51°30.103 2°25.795 -999 298 6.8 100670 99
2006-03-29 09:08 51°30.298 2°25.698 -999 301 6.9 100670 99
2006-03-29 09:09 51°30.492 2°25.636 -999 296 6.9 100670 99
2006-03-29 09:10 51°30.686 2°25.605 -999 293 6.9 100670 99
2006-03-29 09:11 51°30.882 2°25.592 -999 297 6.9 100670 99
2006-03-29 09:12 51°31.082 2°25.575 -999 298 6.9 100680 99
2006-03-29 09:13 51°31.278 2°25.572 -999 280 6.9 100680 99
2006-03-29 09:14 51°31.451 2°25.709 -999 300 7 100690 99
2006-03-29 09:15 51°31.621 2°25.855 -999 301 7 100690 99
2006-03-29 09:16 51°31.792 2°26.008 -999 303 7 100690 99
2006-03-29 09:17 51°31.964 2°26.162 -999 298 7 100690 99
2006-03-29 09:18 51°32.134 2°26.321 -999 317 7.1 100690 99
2006-03-29 09:19 51°32.307 2°26.473 -999 310 7.1 100690 99
2006-03-29 09:20 51°32.481 2°26.629 -999 313 7.1 100690 99
2006-03-29 09:21 51°32.652 2°26.785 -999 325 7.1 100690 99
2006-03-29 09:22 51°32.819 2°26.943 -999 310 7.2 100690 98
2006-03-29 09:23 51°32.995 2°27.094 -999 43 7.2 100690 98
2006-03-29 09:24 51°33.173 2°27.237 -999 309 7.2 100700 98
2006-03-29 09:25 51°33.351 2°27.378 -999 228 7.2 100690 98
2006-03-29 09:26 51°33.53 2°27.516 -999 301 7.2 100690 98
2006-03-29 09:27 51°33.715 2°27.635 -999 308 7.2 100690 98
2006-03-29 09:28 51°33.903 2°27.74 -999 311 7.2 100690 98
2006-03-29 09:29 51°34.091 2°27.84 -999 301 7.2 100700 98
2006-03-29 09:30 51°34.283 2°27.934 -999 316 7.2 100690 98
2006-03-29 09:31 51°34.471 2°28.031 -999 307 7.1 100700 98
2006-03-29 09:32 51°34.656 2°28.133 -999 43 7.1 100700 98
2006-03-29 09:33 51°34.844 2°28.241 -999 306 7.1 100700 98
2006-03-29 09:34 51°35.034 2°28.343 -999 306 7.1 100700 98
2006-03-29 09:35 51°35.222 2°28.448 -999 42 7.1 100700 98
2006-03-29 09:36 51°35.401 2°28.588 -999 328 7.1 100700 98
2006-03-29 09:37 51°35.557 2°28.79 -999 327 7.2 100700 98
2006-03-29 09:38 51°35.72 2°28.975 -999 316 7.2 100700 98
2006-03-29 09:39 51°35.882 2°29.156 -999 317 7.3 100700 98
2006-03-29 09:40 51°36.048 2°29.335 -999 322 7.3 100700 98
2006-03-29 09:41 51°36.214 2°29.514 -999 296 7.4 100700 97
2006-03-29 09:42 51°36.383 2°29.679 -999 314 7.4 100700 97
2006-03-29 09:43 51°36.553 2°29.841 -999 321 7.4 100700 97
2006-03-29 09:44 51°36.718 2°30.018 -999 326 7.4 100700 97
2006-03-29 09:45 51°36.883 2°30.194 -999 325 7.4 100700 97
2006-03-29 09:46 51°37.049 2°30.368 -999 327 7.5 100710 97
2006-03-29 09:47 51°37.216 2°30.554 -999 343 7.5 100710 97
2006-03-29 09:48 51°37.388 2°30.726 -999 335 7.5 100710 97
2006-03-29 09:49 51°37.551 2°30.91 -999 342 7.5 100710 97
2006-03-29 09:50 51°37.718 2°31.091 -999 338 7.5 100710 96
2006-03-29 09:51 51°37.888 2°31.266 -999 341 7.5 100710 96
2006-03-29 09:52 51°38.057 2°31.448 -999 320 7.4 100720 96
2006-03-29 09:53 51°38.229 2°31.623 -999 332 7.4 100710 96
2006-03-29 09:54 51°38.405 2°31.788 -999 324 7.5 100710 96
2006-03-29 09:55 51°38.58 2°31.952 -999 333 7.5 100720 96
2006-03-29 09:56 51°38.758 2°32.12 -999 331 7.4 100720 96
2006-03-29 09:57 51°38.939 2°32.29 -999 339 7.4 100720 96
2006-03-29 09:58 51°39.115 2°32.444 -999 327 7.4 100720 95
2006-03-29 09:59 51°39.267 2°32.659 -999 14 7.4 100720 95
2006-03-29 10:00 51°39.403 2°32.908 -999 24 7.4 100720 95
2006-03-29 10:01 51°39.545 2°33.152 -999 16 7.3 100720 95
2006-03-29 10:02 51°39.686 2°33.393 -999 17 7.4 100720 95
2006-03-29 10:03 51°39.83 2°33.63 -999 3 7.4 100730 95
2006-03-29 10:04 51°39.979 2°33.861 -999 358 7.5 100730 95
2006-03-29 10:05 51°40.131 2°34.09 -999 339 7.6 100720 95
2006-03-29 10:06 51°40.286 2°34.313 -999 328 7.6 100730 95
2006-03-29 10:07 51°40.443 2°34.536 -999 342 7.6 100730 95
2006-03-29 10:08 51°40.602 2°34.753 -999 332 7.6 100730 94
2006-03-29 10:09 51°40.761 2°34.973 -999 342 7.6 100730 94
2006-03-29 10:10 51°40.92 2°35.194 -999 346 7.7 100720 94
2006-03-29 10:11 51°41.079 2°35.412 -999 347 7.7 100720 94
2006-03-29 10:12 51°41.239 2°35.632 -999 340 7.8 100730 94
2006-03-29 10:13 51°41.387 2°35.868 -999 35 7.8 100720 94
2006-03-29 10:14 51°41.515 2°36.134 -999 64 7.6 100720 93
2006-03-29 10:15 51°41.546 2°36.47 -999 74 7.3 100720 92
2006-03-29 10:16 51°41.444 2°36.782 -999 54 7 100710 92
2006-03-29 10:17 51°41.31 2°37.078 -999 56 6.8 100700 93
2006-03-29 10:18 51°41.178 2°37.378 -999 57 6.7 100710 94
2006-03-29 10:19 51°41.048 2°37.68 -999 60 6.6 100710 94
2006-03-29 10:20 51°40.919 2°37.983 -999 62 6.5 100710 95
2006-03-29 10:21 51°40.788 2°38.282 -999 56 6.5 100720 95
2006-03-29 10:22 51°40.656 2°38.581 -999 53 6.4 100720 96
2006-03-29 10:23 51°40.529 2°38.884 -999 60 6.4 100720 96
2006-03-29 10:24 51°40.406 2°39.194 -999 58 6.4 100710 96
2006-03-29 10:25 51°40.284 2°39.504 -999 65 6.4 100720 97
2006-03-29 10:26 51°40.161 2°39.812 -999 57 6.4 100710 97
2006-03-29 10:27 51°40.039 2°40.12 -999 66 6.4 100720 97
2006-03-29 10:28 51°39.916 2°40.428 -999 58 6.4 100730 97
2006-03-29 10:29 51°39.79 2°40.736 -999 65 6.4 100720 97
2006-03-29 10:30 51°39.67 2°41.049 -999 62 6.4 100730 98
2006-03-29 10:31 51°39.55 2°41.36 -999 63 6.4 100720 98
2006-03-29 10:32 51°39.429 2°41.673 -999 60 6.4 100730 98
2006-03-29 10:33 51°39.276 2°41.951 -999 54 6.4 100730 98
2006-03-29 10:34 51°39.068 2°42.104 -999 32 6.4 100710 98
2006-03-29 10:35 51°38.836 2°42.101 -999 28 6.5 100720 98
2006-03-29 10:36 51°38.605 2°42.097 -999 30 6.5 100710 98
2006-03-29 10:37 51°38.373 2°42.099 -999 27 6.5 100710 98
2006-03-29 10:38 51°38.142 2°42.105 -999 32 6.5 100710 98
2006-03-29 10:39 51°37.913 2°42.113 -999 29 6.5 100710 98
2006-03-29 10:40 51°37.683 2°42.102 -999 29 6.5 100710 98
2006-03-29 10:41 51°37.464 2°42.029 -999 13 6.6 100710 98
2006-03-29 10:42 51°37.338 2°41.756 -999 347 6.6 100720 99
2006-03-29 10:43 51°37.311 2°41.416 -999 341 6.6 100720 99
2006-03-29 10:44 51°37.296 2°41.08 -999 341 6.6 100720 99
2006-03-29 10:45 51°37.29 2°40.743 -999 341 6.7 100720 99
2006-03-29 10:46 51°37.29 2°40.406 -999 343 6.7 100720 99
2006-03-29 10:47 51°37.291 2°40.065 -999 338 6.7 100730 99
2006-03-29 10:48 51°37.29 2°39.721 -999 337 6.7 100720 99
2006-03-29 10:49 51°37.292 2°39.376 -999 341 6.7 100710 99
2006-03-29 10:50 51°37.293 2°39.032 -999 339 6.7 100720 99
2006-03-29 10:51 51°37.294 2°38.688 -999 341 6.7 100720 99
2006-03-29 10:52 51°37.298 2°38.345 -999 340 6.7 100710 99
2006-03-29 10:53 51°37.301 2°38.004 -999 342 6.7 100720 99
2006-03-29 10:54 51°37.312 2°37.664 -999 335 6.7 100710 99
2006-03-29 10:55 51°37.331 2°37.324 -999 337 6.7 100720 99
2006-03-29 10:56 51°37.348 2°36.983 -999 337 6.7 100720 99
2006-03-29 10:57 51°37.365 2°36.642 -999 341 6.7 100720 99
2006-03-29 10:58 51°37.38 2°36.299 -999 339 6.7 100710 99
2006-03-29 10:59 51°37.398 2°35.957 -999 340 6.6 100720 99
2006-03-29 11:00 51°37.417 2°35.616 -999 338 6.7 100730 99
2006-03-29 11:01 51°37.44 2°35.278 -999 339 6.7 100730 99
2006-03-29 11:02 51°37.465 2°34.945 -999 340 6.7 100730 99
2006-03-29 11:03 51°37.467 2°34.62 -999 348 6.7 100730 99
2006-03-29 11:04 51°37.372 2°34.346 -999 359 6.7 100740 99
2006-03-29 11:05 51°37.229 2°34.12 -999 7 6.7 100730 99
2006-03-29 11:06 51°37.036 2°34.008 -999 23 6.7 100730 99
2006-03-29 11:07 51°36.831 2°33.925 -999 21 6.7 100730 99
2006-03-29 11:08 51°36.629 2°33.831 -999 22 6.7 100730 99
2006-03-29 11:09 51°36.431 2°33.721 -999 17 6.8 100740 99
2006-03-29 11:10 51°36.233 2°33.609 -999 17 6.8 100740 99
2006-03-29 11:11 51°36.036 2°33.493 -999 18 6.8 100750 99
2006-03-29 11:12 51°35.84 2°33.376 -999 15 6.8 100750 99
2006-03-29 11:13 51°35.646 2°33.254 -999 20 6.8 100740 99
2006-03-29 11:14 51°35.448 2°33.143 -999 23 6.8 100740 99
2006-03-29 11:15 51°35.251 2°33.03 -999 24 6.8 100740 99
2006-03-29 11:16 51°35.055 2°32.921 -999 18 6.8 100740 99
2006-03-29 11:17 51°34.859 2°32.815 -999 19 6.9 100740 99
2006-03-29 11:18 51°34.663 2°32.705 -999 21 6.9 100740 98
2006-03-29 11:19 51°34.466 2°32.598 -999 18 6.8 100750 98
2006-03-29 11:20 51°34.27 2°32.49 -999 20 6.9 100740 98
2006-03-29 11:21 51°34.074 2°32.382 -999 16 6.9 100750 98
2006-03-29 11:22 51°33.878 2°32.275 -999 19 6.9 100750 98
2006-03-29 11:23 51°33.681 2°32.169 -999 17 6.9 100760 98
2006-03-29 11:24 51°33.486 2°32.059 -999 17 6.9 100740 98
2006-03-29 11:25 51°33.29 2°31.95 -999 19 6.9 100750 98
2006-03-29 11:26 51°33.095 2°31.841 -999 17 7 100750 98
2006-03-29 11:27 51°32.9 2°31.733 -999 22 7 100750 98
2006-03-29 11:28 51°32.706 2°31.622 -999 18 7 100760 98
2006-03-29 11:29 51°32.512 2°31.512 -999 18 7 100760 98
2006-03-29 11:30 51°32.307 2°31.47 -999 29 6.9 100760 98
2006-03-29 11:31 51°32.099 2°31.457 -999 38 6.9 100770 98
2006-03-29 11:32 51°31.906 2°31.605 -999 52 6.9 100760 98
2006-03-29 11:33 51°31.715 2°31.777 -999 52 6.8 100760 98
2006-03-29 11:34 51°31.524 2°31.942 -999 61 6.9 100760 98
2006-03-29 11:35 51°31.391 2°32.233 -999 80 6.9 100780 98
2006-03-29 11:36 51°31.278 2°32.56 -999 75 6.8 100770 98
2006-03-29 11:37 51°31.165 2°32.886 -999 73 6.8 100770 98
2006-03-29 11:38 51°31.053 2°33.214 -999 78 6.8 100780 98
2006-03-29 11:39 51°30.939 2°33.546 -999 69 6.8 100770 98
2006-03-29 11:40 51°30.819 2°33.885 -999 67 6.8 100770 98
2006-03-29 11:41 51°30.696 2°34.232 -999 70 6.8 100770 98
2006-03-29 11:42 51°30.571 2°34.565 -999 65 6.8 100780 98
2006-03-29 11:43 51°30.453 2°34.892 -999 70 6.8 100770 98
2006-03-29 11:44 51°30.339 2°35.214 -999 70 6.7 100770 98
2006-03-29 11:45 51°30.231 2°35.541 -999 67 6.8 100770 98
2006-03-29 11:46 51°30.117 2°35.863 -999 71 6.8 100770 98
2006-03-29 11:47 51°30.002 2°36.186 -999 71 6.7 100760 98
2006-03-29 11:48 51°29.886 2°36.512 -999 67 6.7 100760 98
2006-03-29 11:49 51°29.759 2°36.826 -999 57 6.7 100770 98
2006-03-29 11:50 51°29.593 2°37.079 -999 47 6.7 100750 98
2006-03-29 11:51 51°29.411 2°37.287 -999 48 6.7 100750 98
2006-03-29 11:52 51°29.22 2°37.446 -999 44 6.7 100750 98
2006-03-29 11:53 51°29.031 2°37.602 -999 42 6.7 100740 98
2006-03-29 11:54 51°28.844 2°37.758 -999 44 6.7 100740 98
2006-03-29 11:55 51°28.656 2°37.918 -999 43 6.7 100750 99
2006-03-29 11:56 51°28.466 2°38.08 -999 41 6.7 100750 99
2006-03-29 11:57 51°28.274 2°38.226 -999 40 6.6 100750 99
2006-03-29 11:58 51°28.082 2°38.367 -999 40 6.6 100750 99
2006-03-29 11:59 51°27.89 2°38.509 -999 41 6.6 100760 99
2006-03-29 12:00 51°27.703 2°38.674 -999 42 6.6 100750 99
2006-03-29 12:01 51°27.515 2°38.844 -999 47 6.6 100770 99
2006-03-29 12:02 51°27.328 2°39.012 -999 48 6.6 100760 99
2006-03-29 12:03 51°27.138 2°39.168 -999 50 6.6 100780 99
2006-03-29 12:04 51°26.948 2°39.323 -999 50 6.7 100750 99
2006-03-29 12:05 51°26.758 2°39.478 -999 54 6.7 100760 99
2006-03-29 12:06 51°26.569 2°39.635 -999 51 6.7 100750 99
2006-03-29 12:07 51°26.379 2°39.789 -999 54 6.7 100760 99
2006-03-29 12:08 51°26.189 2°39.945 -999 48 6.8 100770 99
2006-03-29 12:09 51°25.997 2°40.101 -999 49 6.8 100780 99
2006-03-29 12:10 51°25.806 2°40.258 -999 50 6.8 100770 99
2006-03-29 12:11 51°25.617 2°40.419 -999 48 6.8 100780 99
2006-03-29 12:12 51°25.427 2°40.576 -999 49 6.8 100780 99
2006-03-29 12:13 51°25.236 2°40.732 -999 48 6.8 100790 98
2006-03-29 12:14 51°25.047 2°40.889 -999 51 6.8 100780 98
2006-03-29 12:15 51°24.856 2°41.041 -999 50 6.8 100790 98
2006-03-29 12:16 51°24.664 2°41.181 -999 38 6.8 100790 98
2006-03-29 12:17 51°24.463 2°41.24 -999 40 6.8 100790 98
2006-03-29 12:18 51°24.263 2°41.298 -999 41 6.8 100790 98
2006-03-29 12:19 51°24.061 2°41.361 -999 45 6.9 100770 98
2006-03-29 12:20 51°23.859 2°41.417 -999 37 6.9 100780 98
2006-03-29 12:21 51°23.667 2°41.365 -999 34 6.9 100780 98
2006-03-29 12:22 51°23.475 2°41.3 -999 38 6.9 100780 98
2006-03-29 12:23 51°23.283 2°41.237 -999 35 7 100770 98
2006-03-29 12:24 51°23.09 2°41.18 -999 35 7 100780 98
2006-03-29 12:25 51°22.897 2°41.127 -999 28 7 100770 98
2006-03-29 12:26 51°22.705 2°41.071 -999 34 7 100760 98
2006-03-29 12:27 51°22.512 2°41.016 -999 40 7 100770 98
2006-03-29 12:28 51°22.317 2°40.968 -999 35 7 100770 98
2006-03-29 12:29 51°22.123 2°40.918 -999 42 7 100770 98
2006-03-29 12:30 51°21.929 2°40.862 -999 34 7 100780 98
2006-03-29 12:31 51°21.735 2°40.81 -999 46 7 100780 98
2006-03-29 12:32 51°21.533 2°40.847 -999 48 7 100770 98
2006-03-29 12:33 51°21.332 2°40.91 -999 56 6.9 100780 98
2006-03-29 12:34 51°21.133 2°41.018 -999 57 6.9 100780 98
2006-03-29 12:35 51°20.947 2°41.185 -999 82 6.9 100800 98
2006-03-29 12:36 51°20.85 2°41.517 -999 110 7 100820 98
2006-03-29 12:37 51°20.788 2°41.894 -999 97 7 100830 99
2006-03-29 12:38 51°20.717 2°42.272 -999 102 7 100840 99
2006-03-29 12:39 51°20.644 2°42.647 -999 86 7 100830 98
2006-03-29 12:40 51°20.567 2°43.017 -999 86 7 100840 98
2006-03-29 12:41 51°20.49 2°43.388 -999 100 7 100840 98
2006-03-29 12:42 51°20.41 2°43.754 -999 98 7 100840 99
2006-03-29 12:43 51°20.331 2°44.122 -999 90 7 100840 99
2006-03-29 12:44 51°20.244 2°44.486 -999 99 7 100840 99
2006-03-29 12:45 51°20.166 2°44.845 -999 82 7 100840 99
2006-03-29 12:46 51°20.089 2°45.199 -999 103 7 100840 99
2006-03-29 12:47 51°20.012 2°45.56 -999 88 7 100840 99
2006-03-29 12:48 51°19.919 2°45.919 -999 94 7 100840 99
2006-03-29 12:49 51°19.823 2°46.276 -999 89 7 100840 99
2006-03-29 12:50 51°19.732 2°46.63 -999 95 7 100840 99
2006-03-29 12:51 51°19.635 2°46.977 -999 98 7.1 100840 99
2006-03-29 12:52 51°19.537 2°47.322 -999 99 7.1 100840 99
2006-03-29 12:53 51°19.434 2°47.66 -999 88 7.1 100820 99
2006-03-29 12:54 51°19.331 2°47.997 -999 86 7.1 100820 99
2006-03-29 12:55 51°19.226 2°48.331 -999 87 7.1 100820 99
2006-03-29 12:56 51°19.114 2°48.656 -999 83 7.1 100820 98
2006-03-29 12:57 51°18.998 2°48.974 -999 85 7.1 100820 98
2006-03-29 12:58 51°18.881 2°49.295 -999 89 7.1 100820 98
2006-03-29 12:59 51°18.762 2°49.617 -999 97 7.1 100820 98
2006-03-29 13:00 51°18.644 2°49.936 -999 80 7.1 100810 98
2006-03-29 13:01 51°18.526 2°50.253 -999 86 7.1 100820 98
2006-03-29 13:02 51°18.405 2°50.568 -999 85 7.1 100820 98
2006-03-29 13:03 51°18.29 2°50.891 -999 80 7.1 100820 98
2006-03-29 13:04 51°18.169 2°51.205 -999 84 7.1 100840 98
2006-03-29 13:05 51°18.041 2°51.505 -999 81 7.1 100830 98
2006-03-29 13:06 51°17.898 2°51.782 -999 75 7.1 100830 98
2006-03-29 13:07 51°17.739 2°52.022 -999 71 7.2 100830 98
2006-03-29 13:08 51°17.566 2°52.231 -999 75 7.2 100830 98
2006-03-29 13:09 51°17.378 2°52.395 -999 67 7.2 100820 98
2006-03-29 13:10 51°17.19 2°52.555 -999 65 7.2 100820 98
2006-03-29 13:11 51°17.001 2°52.718 -999 68 7.2 100820 98
2006-03-29 13:12 51°16.812 2°52.885 -999 72 7.2 100820 98
2006-03-29 13:13 51°16.625 2°53.064 -999 70 7.2 100820 98
2006-03-29 13:14 51°16.435 2°53.237 -999 69 7.3 100820 98
2006-03-29 13:15 51°16.248 2°53.417 -999 65 7.3 100820 98
2006-03-29 13:16 51°16.058 2°53.589 -999 66 7.4 100820 98
2006-03-29 13:17 51°15.868 2°53.765 -999 63 7.4 100820 97
2006-03-29 13:18 51°15.703 2°53.908 -999 68 7.4 100830 97
2006-03-29 13:19 51°15.532 2°54.058 -999 60 7.4 100820 97
2006-03-29 13:20 51°15.35 2°54.196 -999 61 7.4 100820 97
2006-03-29 13:21 51°15.168 2°54.326 -999 60 7.4 100820 97
2006-03-29 13:22 51°14.989 2°54.466 -999 57 7.5 100820 97
2006-03-29 13:23 51°14.816 2°54.622 -999 51 7.5 100820 97
2006-03-29 13:24 51°14.644 2°54.781 -999 49 7.4 100820 96
2006-03-29 13:25 51°14.472 2°54.946 -999 53 7.4 100830 96
2006-03-29 13:26 51°14.319 2°55.15 -999 74 7.5 100830 96
2006-03-29 13:27 51°14.208 2°55.339 -999 68 7.6 100850 96
2006-03-29 13:28 51°14.104 2°55.425 -999 75 7.7 100850 97
2006-03-29 13:29 51°14.012 2°55.494 -999 83 7.9 100850 97
2006-03-29 13:30 51°13.92 2°55.559 -999 63 8.1 100850 96
2006-03-29 13:31 51°13.83 2°55.625 -999 68 8.4 100840 94
2006-03-29 13:32 51°13.748 2°55.714 -999 72 8.7 100850 92
2006-03-29 13:33 51°13.689 2°55.822 -999 140 9 100860 88
2006-03-29 13:34 51°13.651 2°55.916 -999 113 9.2 100860 86
2006-03-29 13:35 51°13.625 2°55.995 -999 146 9.4 100850 83
2006-03-29 13:36 51°13.604 2°56.07 -999 141 9.5 100860 80
2006-03-29 13:37 51°13.598 2°56.092 -999 163 9.6 100860 78
2006-03-29 13:38 51°13.598 2°56.092 -999 129 9.8 100860 76